Retour au catalogue

DFS 2

ActifCommunicationsGEO
NORAD 20706·PAYLOAD·🇩🇪 Germany

Lancé Jul 24, 1990 depuis Guiana Space Centre

Loading…

TLE

FraisSource: Space-Track

Époque: Sep 14, 2026, 00:10 UTC

1 20706U 90063B   26257.00710311 -.00000081  00000-0  00000-0 0  9998
2 20706  14.6047   2.9590 0007422 265.0406  98.5990  0.99551882123814

Suivez DFS 2 en temps réel avec AllMySat

Download on the App Store